Change the Weather History Date:

Thursday, August 1, 2013

  Actual Average Record
Temperature  
Mean Temperature 74 °F -  
Max Temperature 89 °F 76 °F 96 °F (2003)
Min Temperature 59 °F 52 °F 44 °F (2002)
Cooling Degree Days 9    
Growing Degree Days 24 (Base 50)    
Moisture  
Dew Point 54 °F    
Average Humidity 60    
Maximum Humidity 94    
Minimum Humidity 16    
Precipitation  
Precipitation 0.16 in - - ()
Sea Level Pressure  
Sea Level Pressure 29.91 in    
Wind  
Wind Speed 6 mph ()    
Max Wind Speed 30 mph    
Max Gust Speed 34 mph    
Visibility 8.6 miles    
Events Rain , Thunderstorm    
Averages and records for this station are not official NWS values.
T = Trace of Precipitation, MM = Missing Value Source: Averaged Metar Reports

Daily Weather History Graph

Daily Weather History Graph

Search for Another Location

Airport or City:

Trip Planner

Search our weather history database for the weather conditions in past years. The results will help you decide how hot, cold, wet, or windy it might be!

Date:

Astronomy

Aug. 01, 2013 Rise Set
Actual Time 5:19 AM PDT 8:37 PM PDT
Civil Twilight 4:39 AM PDT 9:17 PM PDT
Nautical Twilight 3:46 AM PDT 10:10 PM PDT
Astronomical Twilight 2:34 AM PDT 11:20 PM PDT
Moon 12:55 AM PDT (8/1) 4:55 PM PDT (8/1)
Length of Visible Light 16h 38m
Length of Day
15h 18m
Waning Crescent, 22% of the Moon is Illuminated
Aug 1
Waning Crescent
Aug 6
New
Aug 14
First Quarter
Aug 20
Full
Aug 28
Last Quarter

Hourly Weather History & Observations

Time (PDT) Temp. Dew Point Humidity Pressure Visibility Wind Dir Wind Speed Gust Speed Precip Events Conditions
12:00 AM 64.4 °F 51.8 °F 64% 29.96 in 9.0 mi Variable 2.3 mph - N/A   Mostly Cloudy
1:00 AM 64.4 °F 53.6 °F 68% 29.96 in 9.0 mi Variable 2.3 mph - N/A   Mostly Cloudy
2:00 AM 62.6 °F 53.6 °F 72% 29.96 in 9.0 mi Variable 3.5 mph - N/A   Mostly Cloudy
2:27 AM 64.4 °F 50.0 °F 59% 29.98 in 9.0 mi SSE 15.0 mph - N/A   Overcast
3:00 AM 64.4 °F 53.6 °F 68% 29.99 in 9.0 mi Variable 5.8 mph - N/A   Overcast
4:00 AM 64.4 °F 48.2 °F 56% 29.98 in 9.0 mi North 3.5 mph - N/A   Overcast
5:00 AM 61 °F 51 °F 62% 29.98 in - WNW 1.2 mph - -  
5:00 AM 62.6 °F 53.6 °F 72% 29.99 in 9.0 mi Variable 2.3 mph - N/A   Overcast
6:00 AM 62.6 °F 51.8 °F 68% 29.99 in 9.0 mi Calm Calm - N/A   Mostly Cloudy
7:00 AM 60.8 °F 51.8 °F 72% 30.00 in 9.0 mi Variable 2.3 mph - N/A   Mostly Cloudy
8:00 AM 64 °F 53 °F 58% 29.99 in - North 4.6 mph - -  
8:00 AM 64.4 °F 50.0 °F 59% 29.99 in 9.0 mi NNW 4.6 mph - N/A   Mostly Cloudy
9:00 AM 66.2 °F 51.8 °F 60% 29.98 in 9.0 mi WNW 9.2 mph - N/A   Mostly Cloudy
10:00 AM 68.0 °F 51.8 °F 56% 29.96 in 9.0 mi NW 9.2 mph - N/A   Overcast
11:00 AM 74 °F 51 °F 33% 29.93 in - NNW 6.9 mph - -  
11:00 AM 73.4 °F 51.8 °F 47% 29.93 in 9.0 mi WNW 8.1 mph - N/A   Scattered Clouds
12:00 PM 78.8 °F 48.2 °F 34% 29.89 in 9.0 mi Variable 3.5 mph - N/A   Clear
1:00 PM 78.8 °F 46.4 °F 32% 29.87 in 9.0 mi NNW 6.9 mph - N/A   Overcast
2:00 PM 83 °F 49 °F 21% 29.84 in - NW 2.3 mph - -  
2:00 PM 80.6 °F 48.2 °F 32% 29.85 in 9.0 mi Variable 2.3 mph - N/A   Overcast
3:00 PM 86.0 °F 46.4 °F 25% 29.81 in 9.0 mi NE 6.9 mph - N/A   Clear
4:00 PM 87.8 °F 44.6 °F 22% 29.78 in 9.0 mi North 3.5 mph - N/A   Partly Cloudy
5:00 PM 88 °F 49 °F 16% 29.76 in - NNE 4.6 mph - -  
5:00 PM 86.0 °F 51.8 °F 31% 29.77 in 9.0 mi NNE 4.6 mph - N/A   Mostly Cloudy
5:29 PM 82.4 °F 51.8 °F 35% 29.77 in 9.0 mi SSE 18.4 mph 27.6 mph N/A   Overcast
5:47 PM 77.0 °F 55.4 °F 47% 29.78 in 9.0 mi South 29.9 mph - N/A   Mostly Cloudy
6:00 PM 73.4 °F 55.4 °F 53% 29.79 in 9.0 mi South 27.6 mph 34.5 mph N/A   Mostly Cloudy
6:27 PM 73.4 °F 55.4 °F 53% 29.81 in 9.0 mi South 23.0 mph 29.9 mph N/A Thunderstorm Thunderstorm
6:42 PM 73.4 °F 53.6 °F 50% 29.85 in 9.0 mi SSE 13.8 mph 25.3 mph N/A Rain , Thunderstorm Light Rain
6:49 PM 73.4 °F 53.6 °F 50% 29.86 in 9.0 mi ENE 4.6 mph 20.7 mph N/A Rain Light Rain
7:00 PM 73.4 °F 51.8 °F 47% 29.88 in 9.0 mi East 3.5 mph - N/A Rain Light Rain
7:05 PM 73.4 °F 53.6 °F 50% 29.88 in 9.0 mi Variable 5.8 mph - N/A   Overcast
7:14 PM 71.6 °F 57.2 °F 60% 29.90 in 9.0 mi West 9.2 mph - N/A Thunderstorm Overcast
7:31 PM 71.6 °F 59.0 °F 64% 29.92 in 9.0 mi North 3.5 mph - N/A Rain Light Rain
7:46 PM 69.8 °F 57.2 °F 64% 29.94 in 6.0 mi Variable 2.3 mph - N/A Rain Heavy Rain
7:48 PM 69.8 °F 60.8 °F 73% 29.94 in 5.0 mi Variable 3.5 mph - N/A Rain Heavy Rain
7:51 PM 68.0 °F 62.6 °F 83% 29.94 in 5.0 mi Variable 4.6 mph - N/A Rain Rain
7:55 PM 66.2 °F 60.8 °F 83% 29.95 in 6.0 mi Variable 5.8 mph - N/A Rain Rain
8:00 PM 66.2 °F 60.8 °F 83% 29.94 in 8.0 mi WNW 5.8 mph - N/A Rain Rain
8:01 PM 64.4 °F 60.8 °F 88% 29.94 in 8.0 mi WNW 6.9 mph - N/A Rain Heavy Rain
8:08 PM 64.4 °F 62.6 °F 94% 29.94 in 8.0 mi North 4.6 mph - N/A Rain Rain
8:51 PM 64.4 °F 60.8 °F 88% 29.95 in 9.0 mi NW 5.8 mph - N/A   Overcast
9:00 PM 64.4 °F 60.8 °F 88% 29.94 in 9.0 mi North 6.9 mph - N/A   Overcast
9:46 PM 64.4 °F 60.8 °F 88% 29.94 in 9.0 mi WNW 8.1 mph - N/A Rain Light Rain
10:00 PM 62.6 °F 60.8 °F 94% 29.93 in 9.0 mi WNW 5.8 mph - N/A Rain Light Rain
10:30 PM 62.6 °F 60.8 °F 94% 29.93 in 9.0 mi West 3.5 mph - N/A   Overcast
11:00 PM 63 °F 61 °F 90% 29.91 in - SE 1.2 mph - -  
11:00 PM 62.6 °F 60.8 °F 94% 29.93 in 9.0 mi SSE 3.5 mph - N/A   Overcast